Location: Cavaillon
(43.9167°N, 5.2833°E)
Time: 08:16:29
(UTC+00:00)

Daily predictions for brighter satellites

Satellite Brightness Start Highest point End
(mag) Time Altitude Azimuth Time Altitude Azimuth Time Altitude Azimuth
CZ-4C R/B 4.4 16:54:44 10° NNW 16:58:21 15° NNE 17:02:17 10° NE
Cosmos 2227 Rocket 2.7 16:54:18 10° NNW 16:59:34 38° ENE 17:04:48 10° SE
Cosmos 1110 Rocket 4.3 16:54:21 10° SSW 16:59:36 76° WNW 17:04:50 10° NNE
Cosmos 1892 4.1 16:57:44 10° NNE 17:00:36 19° ENE 17:03:27 10° ESE
Cosmos 1939 Rocket 3.9 16:57:44 10° ESE 17:00:56 24° ENE 17:04:05 10° NNE
Cosmos 1302 Rocket 4.2 16:56:31 10° S 17:01:38 53° ESE 17:06:47 10° NNE
USA 307 3.9 17:02:21 10° NW 17:06:14 31° NNE 17:10:03 10° E
H-2A R/B 2.8 17:02:55 10° N 17:06:59 55° WNW 17:10:59 10° SSW
Envisat 3.7 17:02:44 10° S 17:07:44 60° W 17:12:46 10° NNW
COSMO-SKYMED 1 3.4 17:05:00 10° NE 17:08:47 29° E 17:12:34 10° SSE
Cosmos 1300 2.6 17:05:50 10° S 17:09:37 74° E 17:13:26 10° NNE
SAR-Lupe-4 4.2 17:07:12 10° NNE 17:10:30 33° E 17:13:46 10° SSE
USA 308 3.8 17:07:20 10° NW 17:11:14 32° NNE 17:15:04 10° E
Cosmos 1400 Rocket 3.1 17:07:21 10° SSE 17:11:17 46° E 17:15:12 10° NNE
Cosmos 1697 Rocket 3.6 17:08:04 10° SSE 17:12:42 27° ESE 17:17:22 10° NE
Cosmos 1486 Rocket 4.5 17:08:06 10° N 17:13:07 40° ENE 17:18:05 10° SE
CZ-4B R/B 1.2 17:11:21 10° NNE 17:14:32 65° ESE 17:17:36 10° S
Cosmos 1825 Rocket 4.0 17:10:50 10° NNW 17:15:16 70° W 17:19:38 10° S
Cosmos 1825 4.0 17:14:27 10° NE 17:16:10 13° ENE 17:17:30 11° E
Helios 1A Rocket 3.9 17:14:50 10° SE 17:18:16 26° ENE 17:21:41 10° N
ERS-2 2.0 17:14:41 10° NNE 17:18:21 84° ESE 17:21:59 10° SSW
YAOGAN 1 3.8 17:17:27 10° ESE 17:20:42 21° ENE 17:23:57 10° NNE
BREEZE-M TANK 3.3 17:11:22 10° W 17:21:46 79° N 17:25:00 13° E
Atlas Centaur 2 4.3 17:15:31 10° SW 17:22:13 29° S 17:29:13 10° ESE
NOAA 11 4.1 17:20:01 10° SSE 17:25:26 77° ENE 17:30:53 10° N
CZ-2D R/B 3.9 17:22:50 10° SE 17:26:13 32° ENE 17:29:37 10° N
Cosmos 44 4.1 17:22:26 10° SW 17:26:47 47° NW 17:31:26 10° NNE
Okean O Rocket 2.4 17:23:08 10° S 17:27:24 55° W 17:31:42 10° NNW
Cosmos 1340 2.6 17:23:50 10° N 17:27:35 59° ENE 17:31:19 10° SSE
Cosmos 2228 3.9 17:23:51 10° SSW 17:27:59 52° WNW 17:32:11 10° N
SAR-Lupe-1 4.2 17:24:52 10° NNE 17:28:22 52° E 17:31:50 10° S
Cosmos 1726 Rocket 3.9 17:24:28 10° SSW 17:28:47 71° W 17:33:12 10° N
CZ-4 R/B 2.2 17:25:50 10° SE 17:29:04 26° ENE 17:32:18 10° NNE
SL-4 R/B 3.0 17:31:25 10° NW 17:34:31 27° NNE 17:36:33 17° ENE
Aureole 3 2.5 17:31:29 10° S 17:34:35 84° E 17:37:34 10° N
Cosmos 1346 Rocket 3.3 17:31:40 10° N 17:35:23 35° ENE 17:39:04 10° SE
Cosmos 2058 3.4 17:32:25 10° N 17:36:11 34° ENE 17:39:57 10° SE
Cosmos 1980 Rocket 3.3 17:32:08 10° SSE 17:36:23 23° E 17:39:22 15° ENE
Cosmos 1992 Rocket 4.3 17:33:16 10° S 17:38:10 45° ESE 17:43:08 10° NNE
Cosmos 2297 Rocket 2.2 17:33:32 10° NNW 17:39:15 89° ENE 17:44:54 10° SSE
PSLV R/B 4.1 17:36:53 10° NNE 17:40:57 50° E 17:44:58 10° S
In-Cosmos 22 Rocket 4.0 17:35:37 10° N 17:41:01 76° E 17:46:30 10° SSE
CZ-2C R/B 3.7 17:37:23 10° SE 17:42:44 41° ENE 17:47:56 10° N
Cosmos 1315 Rocket 3.3 17:41:26 10° SSE 17:45:05 37° E 17:48:48 10° NNE
Cosmos 1553 Rocket 3.9 17:42:39 10° S 17:48:59 77° E 17:55:15 10° N
Cosmos 220 Rocket 4.0 17:46:28 10° S 17:50:45 63° ESE 17:55:07 10° NNE
Meteor 2-15 4.4 17:46:35 10° S 17:52:38 65° E 17:58:43 10° NNE
Meteor 2-10 Rocket 3.5 17:49:38 10° S 17:54:52 63° E 17:59:56 10° NNE
BREEZE-M R/B 3.9 17:51:05 10° WNW 17:54:54 50° NNE 17:59:00 23° E
USA 305 3.1 17:52:01 10° NW 17:56:16 55° NNE 17:58:11 29° E
Cosmos 1455 2.3 17:53:17 10° S 17:56:56 50° E 18:00:38 10° NNE
SKYMED 2 3.6 17:52:38 10° NNE 17:57:01 86° WNW 18:01:21 10° SSW
Cosmos 2360 4.4 17:53:53 10° S 17:59:23 51° ESE 18:04:36 12° NE
SeaSat 1 3.7 18:00:38 22° NE 18:01:02 22° NE 18:04:49 10° N
NOSS 3-4 (A) 4.4 17:56:00 10° NNW 18:02:18 36° NE 18:05:39 25° E
NOSS 3-4 (C) 4.4 17:56:07 10° NNW 18:02:23 36° NE 18:05:43 25° E
USA 306 3.0 17:58:32 10° NW 18:02:47 60° NNE 18:04:25 34° E
H-2A R/B 2.5 17:58:08 10° SE 18:03:12 42° ENE 18:08:19 10° N
Okean-O 2.5 18:00:09 10° SSE 18:04:33 74° ENE 18:09:00 10° N
MOS 1 Rocket 3.6 18:04:58 10° NNE 18:09:33 44° E 18:14:22 10° S
Cosmos 2278 4.0 18:04:19 10° S 18:09:41 44° ESE 18:12:45 24° NE
NOSS 3-3 (A) 3.8 18:04:49 10° SSW 18:10:35 84° SE 18:16:10 15° NE
Aureole 3 Rocket 4.3 18:06:43 10° SSW 18:10:41 47° WNW 18:16:10 10° N
NOSS 3-3 (C) 3.8 18:04:56 10° SSW 18:10:42 83° SE 18:16:14 15° NE
Cosmos 2219 4.3 18:07:13 10° NW 18:12:43 48° WSW 18:18:11 10° S
USA 215 4.3 18:10:10 20° NE 18:13:24 30° N 18:18:55 10° NW
Cosmos 1745 Rocket 4.0 18:10:25 10° N 18:16:45 89° ENE 18:23:07 10° S
Cosmos 44 Rocket 3.2 18:13:27 10° SSW 18:18:09 64° ESE 18:19:58 37° NE
GEOS 3 Rocket 4.1 18:17:20 35° ENE 18:18:42 42° NE 18:23:45 10° NNW
ARGOS 3.5 18:17:22 33° ESE 18:19:03 43° ENE 18:24:09 10° N
Lacrosse 5 3.5 18:15:18 10° NW 18:19:06 21° NNE 18:20:11 19° NNE
Cosmos 1408 2.7 18:16:08 10° NNW 18:19:48 74° W 18:23:27 10° S
Cosmos 2082 3.6 18:14:20 10° NNW 18:20:07 86° ENE 18:25:51 10° SSE
ATLAS 2AS CENTAUR R/B 3.4 18:17:22 10° NNW 18:24:22 39° NE 18:26:17 33° ENE
Cosmos 968 Rocket 4.3 18:20:15 10° NNW 18:25:19 52° WSW 18:30:18 10° S
Cosmos 1689 Rocket 4.2 18:23:07 10° N 18:25:38 27° WNW 18:28:08 10° SW
Cosmos 2369 3.8 18:28:23 10° SSW 18:34:06 79° WNW 18:39:11 13° NNE
Cosmos 1076 Rocket 3.6 18:29:57 10° NNW 18:34:13 73° W 18:38:27 10° S
CSL-04 Rocket 3.6 18:34:50 10° SSE 18:40:23 85° ENE 18:45:55 10° NNW
Cosmos 2227 Rocket 3.8 18:38:29 10° NW 18:43:32 34° WSW 18:48:35 10° SSW
Cosmos 2263 Rocket 2.8 18:40:38 10° NNW 18:45:07 39° NNE 18:45:07 39° NNE
Cosmos 1709 Rocket 3.9 18:39:51 10° N 18:46:17 86° E 18:52:39 10° S
USA 307 3.0 18:42:17 10° WNW 18:46:28 69° SW 18:46:28 69° SW
CZ-4C R/B 3.7 18:42:59 10° NNW 18:49:11 33° NE 18:49:38 32° NE
USA 308 3.2 18:47:17 10° WNW 18:51:15 62° WSW 18:51:15 62° WSW
Cosmos 1825 3.1 18:48:18 10° NNW 18:51:57 47° W 18:52:23 44° WSW
Cosmos 1697 Rocket 3.6 18:51:00 10° SW 18:56:23 46° WNW 19:01:26 12° NNE
YAOGAN 1 3.9 18:52:30 10° SSW 18:56:32 39° W 19:00:37 10° NNW
CZ-4 R/B 3.6 19:00:53 10° SSW 19:04:04 24° W 19:07:14 10° NW
Milstar 3 4.3 19:03:47 10° SW 19:08:36 21° S 19:09:47 20° S
Cosmos 2315 Rocket 4.1 19:03:34 10° SSW 19:09:45 72° W 19:15:58 10° N
Atlas Centaur 2 4.1 19:03:55 10° WSW 19:11:02 31° S 19:12:40 29° SSE
SL-4 R/B 4.1 19:10:46 10° WNW 19:12:08 22° NW 19:12:08 22° NW
Cosmos 1980 Rocket 2.7 19:14:26 10° SW 19:19:57 55° WNW 19:21:13 45° NNW
SeaSat 1 4.0 19:40:26 31° NW 19:40:26 31° NW 19:43:04 10° NNW
H-2A R/B 4.0 19:38:06 10° SSW 19:42:42 28° W 19:47:22 10° NW
NOSS 3-4 (A) 4.1 19:46:39 10° NW 19:53:08 64° W 19:53:08 64° W
NOSS 3-4 (C) 4.1 19:46:46 10° NW 19:53:11 64° W 19:53:11 64° W
USA 215 4.1 19:57:31 42° NNW 19:57:31 42° NNW 20:01:56 10° NW
Lacrosse 5 4.3 19:58:11 10° NW 19:59:23 17° NW 19:59:23 17° NW
ATLAS 2AS CENTAUR R/B 3.6 20:08:28 10° NW 20:13:44 45° WNW 20:13:44 45° WNW
Cosmos 2263 Rocket 4.5 20:24:51 10° NW 20:26:50 20° WNW 20:26:50 20° WNW
CZ-4C R/B 4.2 20:31:08 10° NW 20:34:49 35° NW 20:34:49 35° NW
